Meteo Giornale » Osservazioni meteo Germania » Ramstein

ore: 02:56 - Osservazioni Meteo Ramstein
Lat. 49° 26' N Lon. 7° 36' E Alt. 238 metri s.l.m.

coperto Europe/Berlin

15 °C

Coperto

Temp. 24 Ore

15 °C

26 °C

Est

9.3 Km/h

Dew point 15 °C

Umidità 100 %

Visibilità  10 Km

Il sole sorge alle ore 05:21

Il sole tramonta alle ore 21:41

Data e Ora Cielo e Fenomeni T °C DP °C Um. % Pres. hPa Vis. km Vento km/h
Oggi h: 02:56 coperto Coperto 15 15 100 1011 10 E 9.3
Oggi h: 02:41 coperto Coperto 15 15 100 1011 10 E/NE 11.1
Oggi h: 02:31 molto_nuvoloso Molto Nuvoloso 15 15 100 1011 10 E/NE 9.3
Oggi h: 01:56 poco_nuvoloso Poco Nuvoloso 15 15 100 1011 10 NE 14.8
Oggi h: 01:31 poco_nuvoloso Poco Nuvoloso 16 16 100 1011 10 NE 13
Oggi h: 00:56 molto_nuvoloso Molto Nuvoloso 16 16 100 1011 10 E/NE 9.3
Oggi h: 00:51 nuvoloso Nuvoloso 16 16 100 1011 10 NE 9.3
Oggi h: 00:36 coperto_pioggia Pioggia Debole 16 16 100 1011 10 N/NE 7.4
Oggi h: 00:21 coperto_pioggia Pioggia Debole 16 16 100 1011 10 E 16.7
Ieri h: 23:56 coperto_pioggia Pioggia Debole 17 17 100 1011 9 N/NE 13
Ieri h: 23:31 coperto_pioggia Pioggia Foschia 17 17 100 1011 6 O/NO 7.4
Ieri h: 23:17 coperto_pioggia Pioggia Debole 19 16 82 1011 8 O 18.5
Ieri h: 22:56 coperto_pioggia Pioggia Debole 20 15 72 1010 10 N 7.4
Ieri h: 22:51 coperto_pioggia Pioggia Debole 20 15 72 1010 10 NE 7.4
Ieri h: 21:56 molto_nuvoloso Molto Nuvoloso 21 15 68 1009 10 E/NE 9.3
Ieri h: 20:56 poco_nuvoloso Poco Nuvoloso 23 16 64 1008 10 N/NE 16.7
Ieri h: 19:56 sereno Sereno 25 13 47 1008 10 N 0
Ieri h: 18:56 sereno Sereno 26 14 47 1007 10 N/NO 11.1
Ieri h: 17:56 poco_nuvoloso Poco Nuvoloso 26 15 50 1008 10 O 11.1
Ieri h: 16:56 sereno Sereno 26 14 47 1008 10 O 11.1
Ieri h: 15:56 sereno Sereno 25 15 53 1008 10 O 11.1
Ieri h: 14:56 poco_nuvoloso Poco Nuvoloso 25 15 53 1009 10 O 18.5
Ieri h: 13:56 poco_nuvoloso Poco Nuvoloso 23 15 60 1009 10 O/SO 13
Ieri h: 13:01 molto_nuvoloso Molto Nuvoloso 21 15 68 1009 10 O 14.8
Ieri h: 12:56 molto_nuvoloso Molto Nuvoloso 21 15 68 1009 10 O 14.8
Ieri h: 12:46 molto_nuvoloso Molto Nuvoloso 22 15 64 1009 10 O 13
Ieri h: 11:51 molto_nuvoloso Molto Nuvoloso 21 15 68 1008 10 SO 14.8
Ieri h: 11:36 molto_nuvoloso Molto Nuvoloso 20 16 77 1008 10 O 16.7
Ieri h: 11:34 molto_nuvoloso Molto Nuvoloso 21 16 73 1008 10 O 14.8
Ieri h: 11:21 coperto Coperto 21 15 68 1008 10 O/SO 16.7
Ieri h: 11:16 coperto Coperto 21 15 68 1008 10 O 22.2
Ieri h: 10:56 coperto Coperto 20 15 72 1008 10 O/SO 24
Ieri h: 09:56 coperto Coperto 19 15 77 1008 10 SO 18.5
Ieri h: 08:56 coperto Coperto 18 15 82 1007 10 O/SO 13
Ieri h: 08:52 coperto Coperto 18 15 82 1007 10 SO 14.8
Ieri h: 07:56 molto_nuvoloso Molto Nuvoloso 18 15 82 1007 10 SO 13
Ieri h: 07:46 molto_nuvoloso Molto Nuvoloso 18 15 82 1007 10 SO 16.7
Ieri h: 06:56 nuvoloso Nuvoloso 17 15 88 1007 10 O/SO 18.5
Ieri h: 05:56 coperto Coperto 17 16 93 1007 10 SO 13
Ieri h: 05:06 molto_nuvoloso Molto Nuvoloso 16 16 100 1007 10 O/SO 16.7
Ieri h: 04:56 nuvoloso Nuvoloso 16 16 100 1007 10 SO 9.3
Ieri h: 03:56 poco_nuvoloso Poco Nuvoloso 16 15 93 1006 10 S/SO 7.4